[[{"header":{"parameterUnit":"m.s-1","parameterCategory":1,"la1":30.2991,"la2":30.254,"lo1":-89.0895,"lo2":-89.0444,"dy":0.0017,"dx":0.0017,"nx":28,"ny":28,"refTime":"2024-03-21T09:00:00:Z","depth":0,"parameterNumber":2,"parameterNumberName":"U-component_of_WINDS"},"data":[0,0,0,0,0,0,0,0,0,0,0,0,0,0,0,0,0,0,0,0,0,0,0,0,0,0,0,0,0,0,0,0,0,0,0,0,0,0,0,0,0,0,0,0,0,0,0,0,0,0,0,0,0,0,0,0,0,0,-3.4791,-3.4792,0,-3.4841,-3.4841,-3.4842,-3.4822,-3.4821,-3.4819,-3.4818,-3.4867,-3.4869,-3.4871,0,0,0,0,0,0,0,0,0,0,0,0,0,-3.4676,-3.4679,-3.4791,-3.4792,-3.4792,-3.4841,-3.4841,-3.4842,-3.4822,-3.4821,-3.4819,-3.4818,-3.4866,-3.4869,-3.4872,0,0,0,0,0,0,0,0,0,0,0,0,0,-3.4726,-3.4679,-3.4791,-3.4788,-3.4788,-3.4841,-3.4841,-3.4842,-3.4822,-3.4821,-3.4819,-3.4817,-3.4865,-3.4869,-3.4872,-3.4929,0,0,-3.4883,-3.4884,0,0,0,0,0,0,0,0,-3.4723,-3.473,-3.4788,-3.4788,-3.4789,-3.4823,-3.4819,-3.4871,-3.4823,-3.4809,-3.4818,-3.4816,-3.4854,-3.4858,-3.4871,-3.4931,-3.4933,-3.4883,-3.4885,-3.4887,-3.4888,0,0,0,0,0,0,0,-3.472,-3.4728,-3.4811,-3.4789,-3.4789,-3.4784,-3.4789,-3.4829,-3.4841,-3.481,-3.4809,-3.4815,-3.4853,-3.4868,-3.4872,-3.4934,-3.4883,-3.4886,-3.4888,-3.489,-3.5042,-3.5044,0,0,0,0,0,0,-3.4717,-3.4725,-3.4809,-3.4812,-3.4751,-3.4787,-3.4793,-3.4814,-3.484,-3.4842,-3.4817,-3.4814,-3.4862,-3.4868,-3.4874,-3.494,-3.4887,-3.489,-3.4892,-3.504,-3.5042,-3.5044,0,0,0,0,0,0,-3.4714,-3.4724,-3.4807,-3.4768,-3.4779,-3.4791,-3.4815,-3.4816,-3.483,-3.4845,-3.4847,-3.4829,-3.4861,-3.4869,-3.4915,-3.4942,-3.4892,-3.4895,-3.5038,-3.5041,-3.5043,-3.5075,0,0,0,0,0,0,-3.4711,-3.4724,-3.4746,-3.4769,-3.4781,-3.4849,-3.4817,-3.4818,-3.4837,-3.4834,-3.4857,-3.4859,-3.486,-3.491,-3.4919,-3.4946,-3.4898,-3.5035,-3.5039,-3.5042,-3.5072,-3.5079,-3.5085,0,0,0,0,0,-3.4707,-3.4753,-3.4747,-3.4757,-3.4809,-3.485,-3.4857,-3.4858,-3.4839,-3.4861,-3.487,-3.4858,-3.4938,-3.4915,-3.4925,-3.4953,-3.5034,-3.5038,-3.5042,-3.5069,-3.5077,-3.5084,0,0,0,0,0,0,-3.4731,-3.4756,-3.475,-3.4804,-3.4825,-3.4847,-3.4874,-3.4867,-3.4893,-3.4889,-3.4889,-3.4894,-3.4942,-3.4953,-3.4926,-3.5009,-3.4983,-3.4989,-3.5,-3.5008,-3.5014,-3.5009,-3.4901,0,0,0,0,0,-3.4743,-3.4776,-3.4795,-3.4841,-3.4852,-3.4862,-3.488,-3.4879,-3.49,-3.4909,-3.4922,-3.4942,-3.4972,-3.4991,-3.5019,-3.5074,-3.5078,-3.5098,-3.5105,-3.511,-3.5115,-3.5143,-3.5152,-3.5058,-3.5058,-3.5058,0,0,-3.4768,-3.4785,-3.4805,-3.4846,-3.4863,-3.4895,-3.4869,-3.4905,-3.4928,-3.4914,-3.4958,-3.4969,-3.4991,-3.5042,-3.5065,-3.5052,-3.5142,-3.5116,-3.512,-3.5121,-3.5148,-3.5157,-3.5165,-3.5061,-3.5061,-3.506,0,0,-3.4828,-3.4846,-3.4885,-3.4902,-3.4927,-3.4933,-3.4943,-3.4966,-3.4972,-3.5017,-3.5006,-3.5034,-3.5086,-3.5102,-3.5117,-3.5184,-3.5173,-3.5193,-3.5226,-3.5253,-3.5261,-3.5267,-3.5289,-3.5297,-3.5199,-3.5199,-3.5199,0,-3.4854,-3.4903,-3.4906,-3.4942,-3.496,-3.495,-3.4989,-3.5005,-3.5038,-3.505,-3.5036,-3.51,-3.5114,-3.5168,-3.5184,-3.5198,-3.5207,-3.5189,-3.526,-3.5266,-3.5272,-3.5293,-3.5301,-3.5201,-3.52,-3.52,-3.52,0,-3.4934,-3.4968,-3.4997,-3.5029,-3.5051,-3.5088,-3.5095,-3.5117,-3.5115,-3.5122,-3.5167,-3.5185,-3.5215,-3.5229,-3.5227,-3.5282,-3.5273,-3.526,-3.5233,-3.5283,-3.5302,-3.531,-3.5204,-3.5203,-3.5202,-3.5202,0,0,-3.5008,-3.5043,-3.5053,-3.5067,-3.5094,-3.512,-3.5157,-3.5188,-3.5205,-3.5229,-3.5258,-3.5302,-3.529,-3.5307,-3.5307,-3.5332,-3.5381,-3.5315,-3.5315,-3.5324,-3.544,-3.5447,-3.5457,-3.5375,-3.5377,-3.5378,-3.5437,0,-3.5069,-3.5134,-3.5137,-3.5196,-3.5226,-3.5218,-3.525,-3.527,-3.5278,-3.5304,-3.5313,-3.5343,-3.5326,-3.5336,-3.536,-3.537,-3.5403,-3.5366,-3.54,-3.5402,-3.5392,-3.5467,-3.5475,-3.553,-3.5445,-3.5446,-3.5447,0,-3.5147,-3.5173,-3.5235,-3.5257,-3.527,-3.5299,-3.5327,-3.5353,-3.5375,-3.5379,-3.5399,-3.5395,-3.5432,-3.5406,-3.5456,-3.543,-3.5445,-3.5452,-3.5454,-3.5455,-3.5425,-3.5467,-3.5548,-3.5555,-3.5459,-3.5458,-3.5457,0,-3.5192,-3.5243,-3.5286,-3.5299,-3.5327,-3.5347,-3.5359,-3.5379,-3.5398,-3.5422,-3.5434,-3.5462,-3.5477,-3.5499,-3.5503,-3.5485,-3.5552,-3.5527,-3.5555,-3.5554,-3.5567,-3.5565,-3.5648,-3.5581,-3.5581,-3.5581,-3.5581,0,-3.5257,-3.5295,-3.5306,-3.5332,-3.5374,-3.5378,-3.5418,-3.5429,-3.5448,-3.5475,-3.547,-3.5496,-3.5501,-3.5527,-3.5531,-3.557,-3.5578,-3.5581,-3.5581,-3.558,-3.5579,-3.5587,-3.5582,-3.5583,-3.5583,-3.5582,-3.5582,0,-3.5313,-3.5323,-3.5369,-3.5392,-3.5399,-3.5428,-3.5447,-3.5471,-3.548,-3.5514,-3.5522,-3.5535,-3.5566,-3.5573,-3.561,-3.5612,-3.5657,-3.5655,-3.565,-3.5649,-3.5675,-3.5671,-3.5763,-3.5774,-3.5703,-3.5704,-3.5704,0,-3.5353,-3.5381,-3.5408,-3.5426,-3.5439,-3.5469,-3.5487,-3.5493,-3.5512,-3.5539,-3.556,-3.5591,-3.5615,-3.5665,-3.5676,-3.5704,-3.5701,-3.5731,-3.5704,-3.5702,-3.5698,-3.5695,-3.5697,-3.5735,-3.5736,-3.5736,-3.5737,0,-3.5421,-3.5424,-3.5452,-3.5481,-3.5503,-3.5526,-3.5548,-3.5563,-3.5571,-3.5593,-3.5625,-3.5644,-3.5682,-3.5711,-3.5739,-3.5751,-3.5744,-3.5746,-3.5753,-3.575,-3.5745,-3.5746,-3.566,-3.5743,-3.5742,-3.5742,-3.5741,-3.5741,-3.5468,-3.5492,-3.5514,-3.5545,-3.5562,-3.5582,-3.5606,-3.5618,-3.5645,-3.5676,-3.5678,-3.5712,-3.5733,-3.577,-3.5783,-3.5809,-3.5799,-3.5811,-3.5813,-3.5815,-3.5816,-3.5744,-3.5815,-3.5814,-3.5814,-3.5814,-3.5814,0,-3.5533,-3.5547,-3.5576,-3.5606,-3.563,-3.5624,-3.5648,-3.5668,-3.5698,-3.5719,-3.5743,-3.5779,-3.5808,-3.5822,-3.585,-3.5868,-3.5866,-3.5875,-3.5872,-3.5875,-3.5824,-3.5814,-3.5876,-3.5876,-3.5876,-3.5876,-3.5876,-3.5876,-3.557,-3.561,-3.5617,-3.5665,-3.5679,-3.5712,-3.5726,-3.5745,-3.5761,-3.5801,-3.5826,-3.5835,-3.5853,-3.5883,-3.5908,-3.5912,-3.5921,-3.5931,-3.5933,-3.5885,-3.5879,-3.5872,-3.5862,-3.5934,-3.5934,-3.5981,-3.5982,-3.5982]},{"header":{"parameterUnit":"m.s-1","parameterCategory":1,"la1":30.2991,"la2":30.254,"lo1":-89.0895,"lo2":-89.0444,"dy":0.0017,"dx":0.0017,"nx":28,"ny":28,"refTime":"2024-03-21T09:00:00:Z","depth":0,"parameterNumber":3,"parameterNumberName":"V-component_of_WINDS"},"data":[0,0,0,0,0,0,0,0,0,0,0,0,0,0,0,0,0,0,0,0,0,0,0,0,0,0,0,0,0,0,0,0,0,0,0,0,0,0,0,0,0,0,0,0,0,0,0,0,0,0,0,0,0,0,0,0,0,0,0.1323,0.1323,0,0.1376,0.1377,0.1377,0.1375,0.1374,0.1374,0.1373,0.143,0.1432,0.1435,0,0,0,0,0,0,0,0,0,0,0,0,0,0.1223,0.1224,0.1323,0.1323,0.1324,0.1376,0.1377,0.1377,0.1375,0.1374,0.1374,0.1373,0.1429,0.1432,0.1435,0,0,0,0,0,0,0,0,0,0,0,0,0,0.127,0.1225,0.1322,0.1329,0.133,0.1376,0.1377,0.1378,0.1376,0.1374,0.1373,0.1372,0.1429,0.1432,0.1435,0.1478,0,0,0.1445,0.1447,0,0,0,0,0,0,0,0,0.1267,0.1274,0.1327,0.1329,0.133,0.1368,0.1362,0.1411,0.1376,0.1358,0.1373,0.1372,0.141,0.1415,0.1428,0.1481,0.1483,0.1446,0.1448,0.1449,0.145,0,0,0,0,0,0,0,0.1264,0.1271,0.1344,0.1328,0.133,0.1331,0.1336,0.1372,0.139,0.136,0.136,0.1366,0.1411,0.1425,0.1429,0.1484,0.1446,0.1448,0.1451,0.1452,0.1578,0.1579,0,0,0,0,0,0,0.1259,0.1269,0.1342,0.1345,0.1295,0.1333,0.1339,0.1357,0.139,0.1394,0.1367,0.1366,0.1419,0.1425,0.1431,0.1485,0.1449,0.1452,0.1454,0.1576,0.1578,0.1579,0,0,0,0,0,0,0.1257,0.1265,0.134,0.1307,0.1317,0.1336,0.1356,0.1358,0.1372,0.1395,0.1399,0.1377,0.1419,0.1426,0.1467,0.1487,0.1454,0.1457,0.1575,0.1577,0.1579,0.1592,0,0,0,0,0,0,0.1254,0.1265,0.128,0.1307,0.1318,0.1374,0.1357,0.136,0.1378,0.1376,0.1406,0.141,0.1419,0.1462,0.147,0.1491,0.1459,0.1573,0.1576,0.1578,0.159,0.1595,0.1598,0,0,0,0,0,0.125,0.1282,0.1281,0.129,0.1338,0.1375,0.1381,0.139,0.1379,0.1396,0.1411,0.1409,0.1483,0.1466,0.1475,0.1497,0.1572,0.1575,0.1578,0.1588,0.1594,0.1598,0,0,0,0,0,0,0.1258,0.1286,0.1285,0.1326,0.1348,0.1374,0.1395,0.1395,0.1421,0.1419,0.143,0.1437,0.1478,0.1492,0.1472,0.1542,0.1526,0.1531,0.1531,0.1537,0.1541,0.1537,0.1462,0,0,0,0,0,0.1264,0.129,0.1314,0.1348,0.1359,0.1376,0.1392,0.1397,0.142,0.143,0.1448,0.1471,0.15,0.1519,0.1547,0.1592,0.16,0.1612,0.1616,0.162,0.1624,0.1651,0.1657,0.1589,0.1589,0.1589,0,0,0.1278,0.1296,0.1312,0.135,0.1368,0.1396,0.1383,0.1413,0.1435,0.1435,0.1474,0.1488,0.1515,0.1559,0.1579,0.1572,0.1644,0.1623,0.1626,0.1629,0.1654,0.1661,0.1667,0.1591,0.1591,0.1591,0,0,0.1317,0.1333,0.1364,0.1382,0.1408,0.1419,0.1427,0.1453,0.1463,0.1502,0.1503,0.1529,0.1578,0.1598,0.1615,0.1663,0.1663,0.1672,0.1694,0.1719,0.1725,0.173,0.1748,0.1755,0.1676,0.1676,0.1676,0,0.1331,0.1372,0.138,0.1411,0.1428,0.1429,0.1461,0.1479,0.1513,0.1526,0.1517,0.158,0.1598,0.1647,0.1659,0.1672,0.1682,0.1669,0.1723,0.1728,0.1733,0.1751,0.1757,0.1677,0.1677,0.1677,0.1677,0,0.1389,0.1418,0.144,0.1473,0.1493,0.1524,0.1538,0.1558,0.1562,0.1574,0.1615,0.1637,0.167,0.1682,0.1686,0.1732,0.1727,0.1721,0.1705,0.174,0.1757,0.1764,0.1679,0.1678,0.1678,0.1678,0,0,0.1434,0.1471,0.1479,0.1495,0.1525,0.1548,0.158,0.1612,0.1629,0.1653,0.1682,0.1724,0.1719,0.1738,0.1744,0.1767,0.1805,0.1758,0.1759,0.1767,0.1859,0.1864,0.1872,0.1805,0.1806,0.1807,0.1857,0,0.1477,0.1533,0.1542,0.1592,0.1619,0.1621,0.1649,0.1672,0.1684,0.1711,0.1725,0.1755,0.1745,0.1757,0.1779,0.1796,0.1824,0.1792,0.1833,0.1834,0.1827,0.1881,0.1886,0.1932,0.1864,0.1865,0.1866,0,0.1534,0.156,0.1612,0.164,0.1652,0.1677,0.1708,0.1732,0.1758,0.1766,0.1788,0.1792,0.1827,0.181,0.1859,0.1837,0.1855,0.1865,0.1867,0.1872,0.1853,0.1888,0.1947,0.1954,0.1876,0.1875,0.1875,0,0.1563,0.1611,0.1649,0.1662,0.1694,0.1712,0.1727,0.1752,0.1771,0.1798,0.1811,0.1842,0.1859,0.1884,0.1897,0.1883,0.1946,0.1929,0.1955,0.1954,0.1968,0.1967,0.2032,0.1978,0.1978,0.1978,0.1978,0,0.1611,0.1644,0.1662,0.1686,0.1723,0.1733,0.177,0.1784,0.1807,0.1834,0.1837,0.1863,0.1878,0.1907,0.1918,0.1958,0.1965,0.1974,0.1976,0.1974,0.1973,0.1986,0.1984,0.198,0.1979,0.1979,0.1978,0,0.165,0.1664,0.1705,0.1733,0.1741,0.1767,0.1791,0.1815,0.1827,0.1862,0.1871,0.1892,0.1925,0.1941,0.1983,0.199,0.2036,0.2036,0.2027,0.2029,0.2053,0.2051,0.2129,0.2141,0.2078,0.2079,0.2079,0,0.168,0.1705,0.1735,0.1753,0.1768,0.1798,0.1817,0.1829,0.1849,0.1882,0.1902,0.1936,0.1963,0.2018,0.2037,0.207,0.2071,0.2096,0.2076,0.2074,0.2073,0.2072,0.2076,0.21,0.2101,0.2101,0.2102,0,0.1732,0.1738,0.1765,0.1795,0.1818,0.1843,0.1867,0.1882,0.1898,0.1921,0.1956,0.1977,0.202,0.2055,0.2089,0.2105,0.2107,0.2108,0.2116,0.2114,0.2109,0.2113,0.2039,0.2106,0.2106,0.2105,0.2105,0.2105,0.1768,0.1791,0.1816,0.1847,0.1867,0.1889,0.1913,0.1929,0.1958,0.1993,0.1999,0.2036,0.2063,0.2109,0.2127,0.2157,0.2151,0.2162,0.2165,0.2168,0.217,0.2103,0.2163,0.2163,0.2163,0.2163,0.2163,0,0.1822,0.1838,0.1866,0.19,0.1925,0.1923,0.195,0.1972,0.2004,0.2029,0.2056,0.2097,0.213,0.2152,0.2187,0.2207,0.2209,0.2216,0.2215,0.2219,0.2173,0.2163,0.2214,0.2214,0.2214,0.2214,0.2214,0.2214,0.1853,0.1892,0.1901,0.195,0.1967,0.2002,0.2018,0.204,0.206,0.2105,0.2132,0.2146,0.2171,0.2207,0.2239,0.2244,0.2258,0.2265,0.2271,0.2227,0.2222,0.2217,0.2208,0.2267,0.2268,0.2315,0.2315,0.2316]}]]